Pagrindinis puslapis
METAR-TAF:

METAR-TAF

Oro uostai :

Los Alamos, Naujoji Meksika, Jungtinės Amerikos Valstijos

platuma: 35-53N, ilguma: 106-17W, Aukštis: 2179 m

Dabartinis oras

Ataskaita buvo paskelbta 15 minutes, ne 07:55 UTC
Vėjas 3 kt iš Vakarų/Šiaurės Vakarų
Temperatūra 24°C
Drėgmė 10%
Slėgis 1022 hPa
Matomumas: 16.1 km
Giedras dangus

METAR: KLAM 080755Z AUTO 29003KT 10SM CLR 24/M10 A3019 RMK AO2 T02421097

Laikas: 02:10 (08:10 UTC)


TAF: trūkstamas

Orai ataskaitas ir orų prognozės (METAR, TAF).

turimą stotys yra geltonos ir raudonos taškus žemėlapyje.

Perkelti pele per norėdami pamatyti stoties vardą.

Tada spustelėkite, norėdami matyti oro stebėjimo ir prognozės.

Norėdami pakeisti žemėlapį: spustelėkite ant žalios mygtukų su juodo kryžiaus žemyn,; žalią mygtuką su brūkšneliu, jei norite nutolinti; arba žalių rodyklių gretimoms žemėlapius.


METAR-TAF: